| time (UTC) | temp F | wind direction | speed knots | gust knots | rain 1hr in | rain 24hr in | rain mn in | humidity % | barometer mb |
| 20260504173506 | 75 | 219 | 8.7 | 13.9 | 0.00 | 0.00 | 0.00 | 51 | 1014.0 |
| 20260504173022 | 76 | 178 | 7.0 | 12.2 | 0.00 | 0.00 | 0.00 | 50 | 1014.2 |
| 20260504172503 | 75 | 219 | 5.2 | 11.3 | 0.00 | 0.00 | 0.00 | 52 | 1014.1 |
| 20260504172006 | 75 | 225 | 6.1 | 13.0 | 0.00 | 0.00 | 0.00 | 53 | 1014.2 |
| 20260504171521 | 75 | 135 | 7.0 | 13.0 | 0.00 | 0.00 | 0.00 | 53 | 1014.3 |
| 20260504171005 | 75 | 195 | 4.3 | 13.0 | 0.00 | 0.00 | 0.00 | 51 | 1014.4 |
| 20260504170510 | 74 | 161 | 6.1 | 18.2 | 0.00 | 0.00 | 0.00 | 54 | 1014.4 |
| 20260504151013 | 68 | 220 | 6.1 | 13.9 | 0.00 | 0.00 | 0.00 | 56 | 1015.6 |
| 20260504150507 | 68 | 183 | 7.8 | 13.9 | 0.00 | 0.00 | 0.00 | 56 | 1015.6 |
| 20260504141011 | 64 | 190 | 6.1 | 14.8 | 0.00 | 0.00 | 0.00 | 56 | 1016.2 |
| 20260504140509 | 64 | 129 | 7.0 | 14.8 | 0.00 | 0.00 | 0.00 | 56 | 1016.3 |
| 20260504130510 | 60 | 162 | 5.2 | 15.6 | 0.00 | 0.00 | 0.00 | 58 | 1016.2 |
| 20260504110503 | 57 | 219 | 6.1 | 14.8 | 0.00 | 0.00 | 0.00 | 57 | 1015.5 |
| 20260504100505 | 56 | 174 | 2.6 | 5.2 | 0.00 | 0.00 | 0.00 | 59 | 1015.5 |
| 20260504082002 | 54 | 171 | 3.5 | 6.1 | 0.00 | 0.00 | 0.00 | 61 | 1015.9 |
| 20260504081515 | 54 | 160 | 3.5 | 9.6 | 0.00 | 0.00 | 0.00 | 61 | 1016.0 |
| 20260504081004 | 54 | 204 | 5.2 | 9.6 | 0.00 | 0.00 | 0.00 | 61 | 1016.0 |
| 20260504080503 | 53 | 116 | 3.5 | 9.6 | 0.00 | 0.00 | 0.00 | 62 | 1016.0 |
| 20260504050503 | 54 | 196 | 2.6 | 8.7 | 0.00 | 0.01 | 0.00 | 63 | 1017.0 |
| 20260504050012 | 54 | 202 | 3.5 | 7.0 | 0.00 | 0.01 | 0.00 | 63 | 1017.0 |
| 20260504045504 | 54 | 156 | 2.6 | 7.0 | 0.00 | 0.01 | 0.01 | 63 | 1016.9 |
| 20260504045007 | 54 | 203 | 2.6 | 7.8 | 0.00 | 0.01 | 0.01 | 63 | 1016.8 |
| 20260504044533 | 53 | 211 | 3.5 | 10.4 | 0.00 | 0.01 | 0.01 | 63 | 1016.9 |
| 20260504044006 | 53 | 206 | 2.6 | 10.4 | 0.00 | 0.01 | 0.01 | 64 | 1016.9 |
| 20260504043504 | 52 | 215 | 1.7 | 5.2 | 0.00 | 0.01 | 0.01 | 65 | 1016.9 |
| 20260504043022 | 52 | 170 | 2.6 | 7.8 | 0.00 | 0.01 | 0.01 | 65 | 1017.0 |
| 20260504042503 | 52 | 173 | 1.7 | 7.8 | 0.00 | 0.01 | 0.01 | 65 | 1017.0 |
| 20260504042006 | 52 | 156 | 2.6 | 7.8 | 0.00 | 0.01 | 0.01 | 65 | 1017.0 |
| 20260504041503 | 52 | 194 | 1.7 | 4.3 | 0.00 | 0.01 | 0.01 | 64 | 1017.1 |
| 20260504041002 | 52 | 194 | 1.7 | 4.3 | 0.00 | 0.01 | 0.01 | 64 | 1017.0 |
| 20260504040503 | 51 | 194 | 0.9 | 3.5 | 0.00 | 0.01 | 0.01 | 64 | 1017.0 |
| 20260504040007 | 51 | 194 | 0.9 | 4.3 | 0.00 | 0.01 | 0.01 | 66 | 1017.1 |
| 20260504035506 | 50 | 194 | 2.6 | 4.3 | 0.00 | 0.01 | 0.01 | 67 | 1016.9 |
| 20260504035004 | 50 | 144 | 1.7 | 3.5 | 0.00 | 0.01 | 0.01 | 69 | 1017.0 |
| 20260504034512 | 49 | 144 | 1.7 | 3.5 | 0.00 | 0.01 | 0.01 | 70 | 1016.8 |
| 20260504034004 | 49 | 144 | 1.7 | 4.3 | 0.00 | 0.01 | 0.01 | 70 | 1016.8 |
| 20260504033508 | 49 | 144 | 2.6 | 4.3 | 0.00 | 0.01 | 0.01 | 71 | 1016.9 |
| 20260504033018 | 48 | 144 | 1.7 | 4.3 | 0.00 | 0.01 | 0.01 | 71 | 1016.9 |
| 20260504032504 | 48 | 144 | 2.6 | 4.3 | 0.00 | 0.01 | 0.01 | 72 | 1016.9 |
| 20260504032005 | 48 | 144 | 2.6 | 3.5 | 0.00 | 0.01 | 0.01 | 73 | 1017.1 |
| 20260504031524 | 47 | 144 | 1.7 | 3.5 | 0.00 | 0.01 | 0.01 | 74 | 1017.2 |
| 20260504031008 | 47 | 144 | 1.7 | 3.5 | 0.00 | 0.01 | 0.01 | 74 | 1017.3 |
| 20260504030503 | 47 | 145 | 0.9 | 1.7 | 0.00 | 0.01 | 0.01 | 74 | 1017.3 |
| 20260504030004 | 47 | 145 | 0.0 | 0.0 | 0.00 | 0.01 | 0.01 | 73 | 1017.3 |
| 20260504025503 | 48 | 145 | 0.0 | 0.0 | 0.00 | 0.01 | 0.01 | 71 | 1017.3 |
| 20260504025003 | 48 | 145 | 0.0 | 0.0 | 0.00 | 0.01 | 0.01 | 71 | 1017.3 |
| 20260504024515 | 49 | 145 | 0.0 | 1.7 | 0.00 | 0.01 | 0.01 | 70 | 1017.2 |
| 20260504024007 | 49 | 145 | 0.0 | 1.7 | 0.00 | 0.01 | 0.01 | 71 | 1017.2 |
| 20260504023503 | 49 | 144 | 0.9 | 2.6 | 0.00 | 0.01 | 0.01 | 71 | 1017.1 |
| 20260504023012 | 48 | 145 | 0.9 | 2.6 | 0.00 | 0.01 | 0.01 | 71 | 1017.0 |
| 20260504022504 | 48 | 144 | 1.7 | 2.6 | 0.00 | 0.01 | 0.01 | 71 | 1016.9 |
| 20260504022004 | 49 | 144 | 0.9 | 1.7 | 0.00 | 0.01 | 0.01 | 71 | 1016.9 |
| 20260504021525 | 49 | 145 | 0.9 | 1.7 | 0.00 | 0.01 | 0.01 | 69 | 1016.9 |
| 20260504021005 | 49 | 145 | 0.0 | 0.9 | 0.00 | 0.01 | 0.01 | 67 | 1016.9 |
| 20260504020508 | 50 | 145 | 0.0 | 0.9 | 0.00 | 0.01 | 0.01 | 66 | 1016.8 |
| 20260504020021 | 50 | 145 | 0.0 | 0.9 | 0.00 | 0.01 | 0.01 | 66 | 1016.6 |
| 20260504015508 | 50 | 145 | 0.0 | 0.9 | 0.00 | 0.01 | 0.01 | 66 | 1016.6 |
| 20260504015008 | 51 | 145 | 0.0 | 0.9 | 0.00 | 0.01 | 0.01 | 65 | 1016.6 |
| 20260504014507 | 51 | 144 | 0.0 | 0.9 | 0.00 | 0.01 | 0.01 | 64 | 1016.4 |
| 20260504014003 | 51 | 145 | 0.0 | 1.7 | 0.00 | 0.01 | 0.01 | 63 | 1016.3 |
| 20260504013503 | 52 | 144 | 0.0 | 2.6 | 0.00 | 0.01 | 0.01 | 62 | 1016.2 |
| 20260504013011 | 52 | 144 | 0.9 | 2.6 | 0.00 | 0.01 | 0.01 | 62 | 1016.2 |
| 20260504012504 | 53 | 145 | 0.9 | 2.6 | 0.00 | 0.01 | 0.01 | 60 | 1016.2 |
| 20260504012007 | 53 | 144 | 0.9 | 2.6 | 0.00 | 0.01 | 0.01 | 60 | 1016.2 |
| 20260504011514 | 54 | 144 | 0.9 | 1.7 | 0.00 | 0.01 | 0.01 | 57 | 1016.2 |
| 20260504011007 | 54 | 144 | 0.9 | 1.7 | 0.00 | 0.01 | 0.01 | 55 | 1016.3 |
| 20260504010505 | 55 | 144 | 0.9 | 2.6 | 0.00 | 0.01 | 0.01 | 55 | 1016.3 |
| 20260504010020 | 55 | 145 | 0.9 | 2.6 | 0.00 | 0.01 | 0.01 | 54 | 1016.2 |
| 20260504005505 | 56 | 145 | 1.7 | 2.6 | 0.00 | 0.01 | 0.01 | 52 | 1016.3 |
| 20260504005005 | 56 | 145 | 0.9 | 1.7 | 0.00 | 0.01 | 0.01 | 52 | 1016.3 |
| 20260504004526 | 56 | 145 | 0.0 | 2.6 | 0.00 | 0.01 | 0.01 | 52 | 1016.3 |
| 20260504004010 | 56 | 144 | 0.9 | 2.6 | 0.00 | 0.01 | 0.01 | 52 | 1016.2 |
| 20260504003507 | 57 | 145 | 0.9 | 1.7 | 0.00 | 0.01 | 0.01 | 51 | 1016.3 |
| 20260504003025 | 57 | 145 | 0.0 | 2.6 | 0.00 | 0.01 | 0.01 | 51 | 1016.4 |
| 20260504002503 | 57 | 145 | 0.9 | 2.6 | 0.00 | 0.01 | 0.01 | 51 | 1016.4 |
| 20260504002003 | 57 | 125 | 0.9 | 2.6 | 0.00 | 0.02 | 0.01 | 51 | 1016.4 |
| 20260504001518 | 58 | 83 | 0.9 | 1.7 | 0.00 | 0.02 | 0.01 | 50 | 1016.4 |
| 20260504001005 | 58 | 226 | 0.9 | 1.7 | 0.00 | 0.03 | 0.01 | 49 | 1016.4 |
| 20260504000506 | 59 | 226 | 0.9 | 2.6 | 0.00 | 0.04 | 0.01 | 47 | 1016.6 |
| 20260504000015 | 60 | 226 | 0.9 | 5.2 | 0.00 | 0.04 | 0.01 | 46 | 1016.7 |
| 20260503235506 | 61 | 226 | 1.7 | 5.2 | 0.00 | 0.04 | 0.01 | 44 | 1016.8 |
| 20260503235007 | 61 | 226 | 2.6 | 5.2 | 0.00 | 0.04 | 0.01 | 43 | 1017.0 |
| 20260503234520 | 62 | 238 | 1.7 | 4.3 | 0.00 | 0.04 | 0.01 | 41 | 1017.0 |
| 20260503234013 | 63 | 240 | 1.7 | 5.2 | 0.00 | 0.04 | 0.01 | 43 | 1017.1 |
| 20260503233507 | 63 | 240 | 1.7 | 5.2 | 0.00 | 0.04 | 0.01 | 41 | 1017.1 |
| 20260503233026 | 63 | 217 | 1.7 | 7.8 | 0.00 | 0.04 | 0.01 | 42 | 1017.1 |
| 20260503232508 | 63 | 231 | 1.7 | 7.8 | 0.00 | 0.04 | 0.01 | 42 | 1017.1 |
| 20260503232016 | 64 | 246 | 2.6 | 7.0 | 0.00 | 0.04 | 0.01 | 40 | 1017.1 |
| 20260503231526 | 64 | 236 | 1.7 | 6.1 | 0.00 | 0.04 | 0.01 | 43 | 1017.2 |
| 20260503231012 | 63 | 229 | 2.6 | 8.7 | 0.00 | 0.04 | 0.01 | 42 | 1017.2 |
| 20260503230503 | 63 | 224 | 3.5 | 8.7 | 0.00 | 0.04 | 0.01 | 42 | 1017.2 |
| 20260503230016 | 64 | 205 | 3.5 | 11.3 | 0.00 | 0.04 | 0.01 | 42 | 1017.1 |
| 20260503225503 | 64 | 250 | 2.6 | 11.3 | 0.00 | 0.04 | 0.01 | 42 | 1017.2 |
| 20260503225006 | 64 | 221 | 3.5 | 8.7 | 0.00 | 0.04 | 0.01 | 40 | 1017.2 |
| 20260503224518 | 64 | 211 | 1.7 | 10.4 | 0.00 | 0.04 | 0.01 | 43 | 1017.3 |
| 20260503224007 | 64 | 192 | 3.5 | 11.3 | 0.00 | 0.04 | 0.01 | 44 | 1017.4 |
| 20260503223508 | 64 | 189 | 6.1 | 11.3 | 0.00 | 0.04 | 0.01 | 41 | 1017.5 |
| 20260503223021 | 64 | 207 | 5.2 | 11.3 | 0.00 | 0.04 | 0.01 | 42 | 1017.5 |
| 20260503222508 | 64 | 218 | 6.1 | 11.3 | 0.00 | 0.04 | 0.01 | 41 | 1017.5 |
| 20260503222008 | 65 | 186 | 3.5 | 7.0 | 0.00 | 0.04 | 0.01 | 41 | 1017.6 |
| 20260503221533 | 65 | 217 | 1.7 | 6.1 | 0.00 | 0.04 | 0.01 | 44 | 1017.6 |
| 20260503221011 | 65 | 192 | 2.6 | 8.7 | 0.00 | 0.04 | 0.01 | 44 | 1017.6 |
| 20260503220509 | 65 | 252 | 3.5 | 8.7 | 0.00 | 0.04 | 0.01 | 41 | 1017.7 |
| 20260503220026 | 65 | 247 | 1.7 | 11.3 | 0.00 | 0.04 | 0.01 | 41 | 1017.7 |
| 20260503215510 | 64 | 181 | 2.6 | 11.3 | 0.00 | 0.04 | 0.01 | 44 | 1017.8 |
| 20260503215008 | 65 | 198 | 5.2 | 11.3 | 0.00 | 0.04 | 0.01 | 41 | 1017.9 |
| 20260503214516 | 65 | 215 | 1.7 | 7.0 | 0.00 | 0.04 | 0.01 | 43 | 1017.9 |
| 20260503214008 | 65 | 287 | 3.5 | 8.7 | 0.00 | 0.04 | 0.01 | 41 | 1018.0 |
| 20260503213506 | 64 | 211 | 5.2 | 8.7 | 0.00 | 0.04 | 0.01 | 42 | 1018.0 |
| 20260503213029 | 65 | 238 | 2.6 | 7.0 | 0.00 | 0.04 | 0.01 | 41 | 1018.1 |
| 20260503212508 | 65 | 233 | 3.5 | 7.0 | 0.00 | 0.04 | 0.01 | 42 | 1018.1 |
| 20260503212009 | 65 | 298 | 1.7 | 7.8 | 0.00 | 0.04 | 0.01 | 44 | 1018.2 |
| 20260503211525 | 65 | 355 | 3.5 | 7.8 | 0.00 | 0.04 | 0.01 | 39 | 1018.3 |
| 20260503211009 | 66 | 315 | 3.5 | 7.0 | 0.00 | 0.04 | 0.01 | 42 | 1018.3 |
| 20260503210509 | 65 | 242 | 1.7 | 8.7 | 0.00 | 0.04 | 0.01 | 46 | 1018.4 |
| 20260503210028 | 65 | 261 | 1.7 | 8.7 | 0.00 | 0.04 | 0.01 | 40 | 1018.4 |
| 20260503205509 | 65 | 229 | 4.3 | 8.7 | 0.00 | 0.04 | 0.01 | 43 | 1018.5 |
| 20260503205017 | 64 | 213 | 4.3 | 9.6 | 0.00 | 0.04 | 0.01 | 41 | 1018.5 |
| 20260503204528 | 64 | 193 | 4.3 | 9.6 | 0.00 | 0.04 | 0.01 | 41 | 1018.5 |
| 20260503204008 | 64 | 240 | 3.5 | 12.2 | 0.00 | 0.04 | 0.01 | 46 | 1018.6 |
| 20260503203509 | 63 | 191 | 3.5 | 12.2 | 0.00 | 0.04 | 0.01 | 44 | 1018.8 |
| 20260503203017 | 64 | 178 | 5.2 | 11.3 | 0.00 | 0.04 | 0.01 | 45 | 1018.8 |
| 20260503202509 | 64 | 275 | 2.6 | 10.4 | 0.00 | 0.04 | 0.01 | 47 | 1019.0 |
| 20260503202010 | 63 | 178 | 6.1 | 10.4 | 0.00 | 0.04 | 0.01 | 46 | 1019.1 |
| 20260503201529 | 64 | 243 | 4.3 | 10.4 | 0.00 | 0.04 | 0.01 | 48 | 1019.1 |
| 20260503201002 | 65 | 207 | 3.5 | 7.8 | 0.00 | 0.04 | 0.01 | 50 | 1019.3 |
| 20260503200503 | 64 | 233 | 3.5 | 9.6 | 0.00 | 0.04 | 0.01 | 48 | 1019.4 |
| 20260503200010 | 63 | 328 | 2.6 | 9.6 | 0.00 | 0.04 | 0.01 | 51 | 1019.5 |
| 20260503195503 | 62 | 254 | 2.6 | 12.2 | 0.00 | 0.04 | 0.01 | 45 | 1019.5 |
| 20260503195003 | 62 | 213 | 3.5 | 12.2 | 0.00 | 0.04 | 0.01 | 47 | 1019.6 |
| 20260503194510 | 63 | 190 | 5.2 | 12.2 | 0.00 | 0.04 | 0.01 | 47 | 1019.8 |
| 20260503194004 | 63 | 225 | 3.5 | 7.0 | 0.00 | 0.04 | 0.01 | 50 | 1019.9 |
| 20260503193503 | 62 | 124 | 4.3 | 8.7 | 0.00 | 0.04 | 0.01 | 53 | 1019.9 |
| 20260503193018 | 62 | 206 | 3.5 | 8.7 | 0.00 | 0.04 | 0.01 | 51 | 1020.0 |
| 20260503192503 | 62 | 220 | 5.2 | 8.7 | 0.00 | 0.04 | 0.01 | 51 | 1020.1 |
| 20260503192010 | 62 | 233 | 4.3 | 9.6 | 0.00 | 0.04 | 0.01 | 50 | 1020.1 |
| 20260503191522 | 63 | 211 | 5.2 | 9.6 | 0.00 | 0.04 | 0.01 | 53 | 1020.2 |
| 20260503191006 | 62 | 168 | 4.3 | 9.6 | 0.00 | 0.04 | 0.01 | 51 | 1020.3 |
| 20260503190507 | 62 | 155 | 5.2 | 9.6 | 0.00 | 0.04 | 0.01 | 50 | 1020.3 |
| 20260503190025 | 63 | 186 | 5.2 | 8.7 | 0.00 | 0.04 | 0.01 | 49 | 1020.3 |
| 20260503185502 | 61 | 206 | 1.7 | 11.3 | 0.00 | 0.04 | 0.01 | 54 | 1020.4 |
| 20260503185003 | 61 | 179 | 6.1 | 10.4 | 0.00 | 0.04 | 0.01 | 52 | 1020.4 |
| 20260503184509 | 62 | 236 | 2.6 | 12.2 | 0.00 | 0.04 | 0.01 | 51 | 1020.4 |
| 20260503184003 | 62 | 193 | 0.9 | 12.2 | 0.00 | 0.04 | 0.01 | 55 | 1020.5 |
| 20260503183505 | 61 | 202 | 5.2 | 11.3 | 0.00 | 0.04 | 0.01 | 57 | 1020.5 |
| 20260503183023 | 60 | 173 | 2.6 | 11.3 | 0.00 | 0.04 | 0.01 | 54 | 1020.6 |
| 20260503182503 | 61 | 132 | 2.6 | 12.2 | 0.00 | 0.04 | 0.01 | 53 | 1020.7 |
| 20260503182007 | 60 | 170 | 6.1 | 11.3 | 0.00 | 0.04 | 0.01 | 52 | 1020.9 |
| 20260503181528 | 60 | 227 | 6.1 | 11.3 | 0.00 | 0.04 | 0.01 | 53 | 1021.0 |
| 20260503181004 | 59 | 172 | 2.6 | 11.3 | 0.00 | 0.04 | 0.01 | 58 | 1021.0 |
| 20260503180507 | 60 | 212 | 3.5 | 11.3 | 0.00 | 0.04 | 0.01 | 54 | 1021.0 |
| 20260503180025 | 61 | 212 | 3.5 | 10.4 | 0.00 | 0.04 | 0.01 | 56 | 1021.0 |
| 20260503175506 | 60 | 223 | 1.7 | 8.7 | 0.00 | 0.04 | 0.01 | 57 | 1021.0 |
| 20260503175010 | 60 | 153 | 3.5 | 8.7 | 0.00 | 0.04 | 0.01 | 60 | 1021.2 |
| 20260503174523 | 59 | 239 | 4.3 | 8.7 | 0.00 | 0.04 | 0.01 | 53 | 1021.4 |
| 20260503174006 | 60 | 248 | 3.5 | 8.7 | 0.00 | 0.04 | 0.01 | 55 | 1021.4 |